TimeEET,TemperatureF,Dew PointF,Humidity,Sea Level PressureIn,VisibilityMPH,Wind Direction,Wind SpeedMPH,Gust SpeedMPH,PrecipitationIn,Events,Conditions,WindDirDegrees,DateUTC
12:00 AM,86.0,64.4,48,29.86,-9999.0,North,6.9,-,N/A,,Clear,360,2012-10-02 22:00:00
1:00 AM,86.0,66.2,51,29.86,-9999.0,North,11.5,-,N/A,,Clear,360,2012-10-02 23:00:00
2:00 AM,86.0,64.4,48,29.86,-9999.0,North,13.8,-,N/A,,Clear,360,2012-10-03 00:00:00
3:00 AM,86.0,66.2,51,29.86,-9999.0,North,15.0,-,N/A,,Clear,360,2012-10-03 01:00:00
4:00 AM,84.2,66.2,55,29.86,-9999.0,North,16.1,-,N/A,,Clear,360,2012-10-03 02:00:00
5:00 AM,84.2,68.0,58,29.86,-9999.0,North,17.3,-,N/A,,Clear,360,2012-10-03 03:00:00
6:00 AM,82.4,68.0,62,29.89,6.2,North,15.0,-,N/A,,Partly Cloudy,360,2012-10-03 04:00:00
7:00 AM,84.2,69.8,62,29.89,-9999.0,North,17.3,-,N/A,,Clear,360,2012-10-03 05:00:00
8:00 AM,87.8,68.0,52,29.89,-9999.0,North,17.3,-,N/A,,Clear,360,2012-10-03 06:00:00
9:00 AM,89.6,66.2,46,29.92,-9999.0,North,15.0,-,N/A,,Clear,360,2012-10-03 07:00:00
10:00 AM,91.4,66.2,43,29.89,-9999.0,North,19.6,-,N/A,,Clear,10,2012-10-03 08:00:00
11:00 AM,95.0,66.2,39,29.89,4.3,North,16.1,-,N/A,,Unknown,360,2012-10-03 09:00:00
12:00 PM,95.0,62.6,34,29.86,4.3,NNE,17.3,-,N/A,,Unknown,20,2012-10-03 10:00:00
1:00 PM,96.8,62.6,32,29.83,4.3,NNE,16.1,-,N/A,,Partly Cloudy,20,2012-10-03 11:00:00
2:00 PM,96.8,60.8,30,29.83,4.3,NNE,16.1,-,N/A,,Partly Cloudy,20,2012-10-03 12:00:00
3:00 PM,96.8,62.6,32,29.80,6.2,North,15.0,-,N/A,,Partly Cloudy,10,2012-10-03 13:00:00
4:00 PM,95.0,60.8,32,29.80,6.2,NNE,15.0,-,N/A,,Partly Cloudy,20,2012-10-03 14:00:00
5:00 PM,91.4,60.8,36,29.80,6.2,North,10.4,-,N/A,,Partly Cloudy,360,2012-10-03 15:00:00
6:00 PM,89.6,62.6,40,29.80,6.2,North,11.5,-,N/A,,Partly Cloudy,360,2012-10-03 16:00:00
7:00 PM,87.8,64.4,46,29.83,6.2,North,13.8,-,N/A,,Partly Cloudy,360,2012-10-03 17:00:00
8:00 PM,87.8,64.4,46,29.83,6.2,North,17.3,-,N/A,,Partly Cloudy,360,2012-10-03 18:00:00
9:00 PM,87.8,64.4,46,29.83,-9999.0,North,17.3,-,N/A,,Clear,360,2012-10-03 19:00:00
10:00 PM,86.0,62.6,45,29.86,-9999.0,North,13.8,-,N/A,,Clear,360,2012-10-03 20:00:00
11:00 PM,86.0,60.8,43,29.86,-9999.0,North,11.5,-,N/A,,Clear,360,2012-10-03 21:00:00